DW6276 Weather Reports


time (UTC)temp
C
wind
direction
speed
KPH
gust
KPH
rain 1hr
cm
rain 24hr
cm
rain mn
cm
humidity
%
barometer
mb
20260502194016 18 293 9.7 17.7 0.00 0.00 0.00 31 1015.1
20260502193016 17 225 14.5 22.5 0.00 0.00 0.00 29 1015.2
20260502192016 17 225 11.3 22.5 0.00 0.00 0.00 32 1015.5
20260502191016 17 248 14.5 24.1 0.00 0.00 0.00 31 1015.8
20260502190036 17 270 11.3 20.9 0.00 0.00 0.00 32 1015.9
20260502185036 17 225 12.9 20.9 0.00 0.00 0.00 30 1016.0
20260502184016 17 270 9.7 22.5 0.00 0.00 0.00 33 1016.2
20260502183016 16 225 9.7 17.7 0.00 0.00 0.00 32 1016.4
20260502182036 16 293 14.5 20.9 0.00 0.00 0.00 31 1016.6
20260502181015 16 293 9.7 19.3 0.00 0.00 0.00 34 1016.8
20260502164015 13 270 8.0 14.5 0.00 0.00 0.00 36 1018.2
20260502163015 13 293 11.3 16.1 0.00 0.00 0.00 35 1018.3
20260502162135 13 315 12.9 19.3 0.00 0.00 0.00 35 1018.5
20260502161015 13 270 11.3 20.9 0.00 0.00 0.00 38 1018.6
20260502152015 12 270 12.9 20.9 0.00 0.00 0.00 40 1019.2
20260502151035 12 270 9.7 16.1 0.00 0.00 0.00 44 1019.2
20260502123017 3 225 1.6 3.2 0.00 0.00 0.00 79 1020.0
20260502122017 2 0 1.6 3.2 0.00 0.00 0.00 81 1019.8
20260502121017 1 0 1.6 3.2 0.00 0.00 0.00 83 1019.7
20260502115017 0 0.0 0.0 0.00 0.00 0.00 86 1019.7
20260502114017 0 0.0 0.0 0.00 0.00 0.00 86 1019.6
20260502113037 -1 0.0 0.0 0.00 0.00 0.00 86 1019.5
20260502112017 -1 0.0 0.0 0.00 0.00 0.00 85 1019.4
20260502111017 -1 0.0 0.0 0.00 0.00 0.00 85 1019.3
20260502110017 -1 0.0 0.0 0.00 0.00 0.00 86 1019.4
20260502105037 -1 0.0 0.0 0.00 0.00 0.00 84 1019.4
20260502104017 -1 0.0 0.0 0.00 0.00 0.00 84 1019.4
20260502103017 -1 0.0 0.0 0.00 0.00 0.00 84 1019.3
20260502102017 -1 0.0 0.0 0.00 0.00 0.00 84 1019.4
20260502101137 -1 0.0 0.0 0.00 0.00 0.00 84 1019.4
20260502091017 0 0.0 0.0 0.00 0.00 0.00 84 1019.2
20260502071017 0 0.0 0.0 0.00 0.00 0.00 79 1019.3
20260502070016 0 0.0 0.0 0.00 0.00 0.00 79 1019.2
20260502065016 0 0.0 0.0 0.00 0.00 0.00 79 1019.4
20260502064016 0 0.0 0.0 0.00 0.00 0.00 79 1019.4
20260502063016 0 0.0 0.0 0.00 0.00 0.00 79 1019.5
20260502062056 0 0.0 0.0 0.00 0.00 0.00 79 1019.5
20260502061016 0 0.0 0.0 0.00 0.00 0.00 79 1019.5
20260502060016 0 0.0 0.0 0.00 0.00 0.00 79 1019.6
20260502055016 0 0.0 0.0 0.00 0.00 0.00 79 1019.4
20260502054016 0 0.0 0.0 0.00 0.00 0.00 78 1019.5
20260502053036 1 0.0 0.0 0.00 0.00 0.00 78 1019.5
20260502052036 1 0.0 0.0 0.00 0.00 0.00 77 1019.4
20260502051016 1 0.0 0.0 0.00 0.00 0.00 77 1019.4
20260502050016 1 0.0 0.0 0.00 0.00 0.00 76 1019.4
20260502045017 2 0.0 0.0 0.00 0.00 0.00 75 1019.4
20260502044037 1 0.0 0.0 0.00 0.00 0.00 74 1019.3
20260502043017 1 0.0 0.0 0.00 0.00 0.00 74 1019.3
20260502042017 2 0.0 1.6 0.00 0.00 0.00 73 1019.3
20260502041017 2 0.0 0.0 0.00 0.00 0.00 72 1019.3
20260502040017 2 0.0 0.0 0.00 0.00 0.00 71 1019.3
20260502035017 2 0.0 0.0 0.00 0.00 0.00 71 1019.3
20260502034017 2 0.0 0.0 0.00 0.00 0.00 70 1019.4
20260502033017 3 0.0 0.0 0.00 0.00 0.00 68 1019.4
20260502032016 3 0.0 0.0 0.00 0.00 0.00 67 1019.4
20260502031016 3 0.0 0.0 0.00 0.00 0.00 66 1019.5
20260502030017 3 0.0 0.0 0.00 0.00 0.00 65 1019.6
20260502025017 4 0.0 0.0 0.00 0.00 0.00 62 1019.3
20260502024017 5 0.0 0.0 0.00 0.00 0.00 60 1019.3
20260502023016 5 0.0 0.0 0.00 0.00 0.00 57 1019.3
20260502022017 5 0.0 0.0 0.00 0.00 0.00 55 1019.3
20260502021016 6 0.0 0.0 0.00 0.00 0.00 52 1019.2
20260502020017 6 0.0 0.0 0.00 0.00 0.00 48 1019.1
20260502015016 7 0.0 0.0 0.00 0.00 0.00 45 1019.0
20260502014037 8 0.0 3.2 0.00 0.00 0.00 44 1018.9
20260502013017 8 0.0 1.6 0.00 0.00 0.00 41 1018.9
20260502012016 9 23 1.6 3.2 0.00 0.00 0.00 40 1018.9
20260502011017 10 23 3.2 4.8 0.00 0.00 0.00 37 1018.9
20260502010016 10 23 4.8 11.3 0.00 0.00 0.00 37 1018.9
20260502005017 10 0 6.4 11.3 0.00 0.00 0.00 37 1018.7
20260502004017 10 338 6.4 11.3 0.00 0.00 0.00 35 1018.7
20260502003016 10 338 11.3 17.7 0.00 0.00 0.00 36 1018.7
20260502002036 11 338 8.0 12.9 0.00 0.00 0.00 35 1018.6
20260502001016 11 338 8.0 12.9 0.00 0.00 0.00 34 1018.5
20260502000016 10 0 8.0 12.9 0.00 0.00 0.00 35 1018.5
20260501235016 11 0 11.3 17.7 0.00 0.00 0.00 33 1018.5
20260501234036 11 23 8.0 14.5 0.00 0.00 0.00 33 1018.5
20260501233016 11 0 6.4 12.9 0.00 0.00 0.00 34 1018.4
20260501232016 11 315 11.3 17.7 0.00 0.00 0.00 32 1018.5
20260501231016 12 315 11.3 17.7 0.00 0.00 0.00 33 1018.5
20260501230016 11 0 9.7 16.1 0.00 0.00 0.00 34 1018.5
20260501225016 11 0 9.7 14.5 0.00 0.00 0.00 34 1018.4
20260501224016 11 338 9.7 14.5 0.00 0.00 0.00 33 1018.5
20260501223016 11 315 9.7 14.5 0.00 0.00 0.00 36 1018.5
20260501222016 10 338 11.3 17.7 0.00 0.00 0.00 36 1018.7
20260501221016 11 0 16.1 24.1 0.00 0.00 0.00 35 1018.5
20260501220036 11 338 14.5 19.3 0.00 0.00 0.00 33 1018.5
20260501215016 11 338 14.5 22.5 0.00 0.00 0.00 33 1018.6
20260501214016 11 315 12.9 22.5 0.00 0.00 0.00 34 1018.5
20260501213016 12 0 17.7 35.4 0.00 0.00 0.00 33 1018.5
20260501212016 11 0 6.4 12.9 0.00 0.00 0.00 33 1018.6
20260501211016 11 0 9.7 16.1 0.00 0.00 0.00 34 1018.7
20260501210016 11 45 12.9 19.3 0.00 0.00 0.00 35 1018.8
20260501205016 12 0 11.3 20.9 0.00 0.00 0.00 33 1018.9
20260501204016 11 338 8.0 17.7 0.00 0.00 0.00 35 1019.0
20260501203016 10 338 9.7 20.9 0.00 0.00 0.00 37 1019.0
20260501202016 11 45 9.7 17.7 0.00 0.00 0.00 36 1019.1
20260501201016 11 0 9.7 20.9 0.00 0.00 0.00 36 1019.1
20260501200016 11 0 11.3 17.7 0.00 0.00 0.00 36 1019.2
20260501195016 11 338 16.1 24.1 0.00 0.00 0.00 36 1019.1